SN73XP ZZZZ-EPRZ

Flight info

Callsign SN73XP
Flight time N/A
Altitude 1500
Route DCT EPRZM DCT EPRZN DCT
Aircraft H60/M-SDFGIRY/S

Departure

Time N/A
Airport ZZZZ

Arrival

Time 2026-05-06 12:20
Airport Rzeszów-Jasionka Airport (EPRZ)
Time Latitude Longitude Altitude Speed Heading
2026-05-06 11:57 50.48429 23.03932 812 ft 0 kts 355°
2026-05-06 11:59 50.48438 23.03932 857 ft 6 kts 356°
2026-05-06 11:59 50.48578 23.03688 1208 ft 76 kts 284°
2026-05-06 11:59 50.48335 23.02591 1616 ft 132 kts 248°
2026-05-06 12:00 50.47948 23.01120 1579 ft 154 kts 257°
2026-05-06 12:00 50.47624 22.99487 1604 ft 154 kts 277°
2026-05-06 12:00 50.47382 22.97737 1613 ft 169 kts 262°
2026-05-06 12:00 50.47126 22.95897 1430 ft 165 kts 261°
2026-05-06 12:01 50.46803 22.94281 1511 ft 142 kts 260°
2026-05-06 12:01 50.46447 22.92915 1511 ft 131 kts 261°
2026-05-06 12:01 50.46129 22.91514 1475 ft 140 kts 260°
2026-05-06 12:01 50.45814 22.90036 1468 ft 145 kts 258°
2026-05-06 12:02 50.45453 22.88528 1463 ft 150 kts 255°
2026-05-06 12:02 50.45044 22.87014 1460 ft 152 kts 252°
2026-05-06 12:02 50.44592 22.85564 1509 ft 142 kts 254°
2026-05-06 12:02 50.44241 22.84118 1489 ft 143 kts 261°
2026-05-06 12:03 50.43966 22.82615 1488 ft 145 kts 263°
2026-05-06 12:03 50.43713 22.81064 1493 ft 148 kts 261°
2026-05-06 12:03 50.43352 22.79551 1483 ft 151 kts 254°
2026-05-06 12:03 50.43118 22.78745 1490 ft 152 kts 255°
2026-05-06 12:04 50.42822 22.77744 1499 ft 150 kts 255°
2026-05-06 12:04 50.42399 22.76267 1496 ft 146 kts 257°
2026-05-06 12:04 50.41982 22.74821 1496 ft 144 kts 254°
2026-05-06 12:04 50.41525 22.73450 1492 ft 141 kts 250°
2026-05-06 12:05 50.41025 22.72123 1497 ft 139 kts 248°
2026-05-06 12:05 50.40712 22.70714 1493 ft 139 kts 262°
2026-05-06 12:05 50.40493 22.69204 1491 ft 143 kts 262°
2026-05-06 12:05 50.40230 22.67711 1489 ft 140 kts 255°
2026-05-06 12:06 50.39937 22.66253 1491 ft 140 kts 252°
2026-05-06 12:06 50.39616 22.64815 1493 ft 140 kts 251°
2026-05-06 12:06 50.39259 22.63390 1494 ft 139 kts 245°
2026-05-06 12:06 50.38963 22.61955 1490 ft 141 kts 246°
2026-05-06 12:07 50.38672 22.60486 1488 ft 141 kts 246°
2026-05-06 12:07 50.38369 22.59025 1492 ft 142 kts 246°
2026-05-06 12:07 50.38035 22.57544 1489 ft 147 kts 246°
2026-05-06 12:07 50.37720 22.56019 1487 ft 147 kts 246°
2026-05-06 12:08 50.37380 22.54510 1475 ft 147 kts 240°
2026-05-06 12:08 50.36956 22.53074 1483 ft 143 kts 240°
2026-05-06 12:08 50.36528 22.51687 1483 ft 141 kts 240°
2026-05-06 12:08 50.36080 22.50324 1479 ft 140 kts 240°
2026-05-06 12:09 50.35641 22.48960 1491 ft 141 kts 240°
2026-05-06 12:09 50.35221 22.47548 1489 ft 145 kts 240°
2026-05-06 12:09 50.34805 22.46103 1477 ft 145 kts 240°
2026-05-06 12:09 50.34387 22.44654 1489 ft 147 kts 240°
2026-05-06 12:10 50.33968 22.43243 1498 ft 142 kts 240°
2026-05-06 12:10 50.33558 22.41830 1484 ft 142 kts 240°
2026-05-06 12:10 50.33177 22.40392 1484 ft 143 kts 240°
2026-05-06 12:10 50.32788 22.38956 1482 ft 143 kts 240°
2026-05-06 12:11 50.32393 22.37512 1487 ft 145 kts 240°
2026-05-06 12:11 50.31974 22.36097 1488 ft 142 kts 240°
2026-05-06 12:11 50.31566 22.34684 1493 ft 143 kts 240°
2026-05-06 12:11 50.31154 22.33273 1482 ft 142 kts 240°
2026-05-06 12:12 50.30759 22.31854 1492 ft 143 kts 240°
2026-05-06 12:12 50.30356 22.30436 1493 ft 142 kts 240°
2026-05-06 12:12 50.29954 22.29015 1498 ft 144 kts 240°
2026-05-06 12:12 50.29533 22.27598 1492 ft 143 kts 240°
2026-05-06 12:13 50.29139 22.26184 1490 ft 141 kts 240°
2026-05-06 12:13 50.28749 22.24795 1497 ft 141 kts 240°
2026-05-06 12:13 50.28362 22.23396 1499 ft 140 kts 240°
2026-05-06 12:13 50.27973 22.22007 1500 ft 141 kts 240°
2026-05-06 12:14 50.27551 22.20592 1502 ft 143 kts 240°
2026-05-06 12:14 50.27128 22.19176 1493 ft 145 kts 240°
2026-05-06 12:14 50.26703 22.17750 1521 ft 143 kts 240°
2026-05-06 12:14 50.26236 22.16397 1522 ft 140 kts 233°
2026-05-06 12:15 50.25734 22.15095 1510 ft 140 kts 233°
2026-05-06 12:15 50.25232 22.13802 1510 ft 138 kts 233°
2026-05-06 12:15 50.24708 22.12545 1485 ft 138 kts 232°
2026-05-06 12:15 50.23910 22.11676 1515 ft 138 kts 216°
2026-05-06 12:16 50.23112 22.10852 1501 ft 137 kts 221°
2026-05-06 12:16 50.22319 22.10019 1500 ft 137 kts 222°
2026-05-06 12:16 50.21561 22.09129 1516 ft 135 kts 221°
2026-05-06 12:16 50.20783 22.08284 1513 ft 139 kts 220°
2026-05-06 12:17 50.19969 22.07463 1516 ft 137 kts 221°
2026-05-06 12:17 50.19251 22.06560 1517 ft 134 kts 226°
2026-05-06 12:17 50.18518 22.05644 1521 ft 137 kts 226°
2026-05-06 12:17 50.17750 22.04752 1517 ft 136 kts 221°
2026-05-06 12:18 50.17015 22.03854 1507 ft 133 kts 225°
2026-05-06 12:18 50.16220 22.03119 1501 ft 136 kts 197°
2026-05-06 12:18 50.15289 22.03237 1508 ft 139 kts 166°
2026-05-06 12:18 50.14466 22.03966 1482 ft 129 kts 153°
2026-05-06 12:19 50.13795 22.04778 1321 ft 118 kts 146°
2026-05-06 12:19 50.13123 22.05540 1211 ft 119 kts 150°
2026-05-06 12:19 50.12433 22.06202 1218 ft 113 kts 163°
2026-05-06 12:19 50.11664 22.06344 1051 ft 113 kts 208°
2026-05-06 12:20 50.10953 22.05869 950 ft 102 kts 252°
2026-05-06 12:20 50.10887 22.04906 839 ft 100 kts 281°
2026-05-06 12:20 50.10983 22.03841 766 ft 91 kts 263°
2026-05-06 12:20 50.10969 22.03159 764 ft 37 kts 272°
2026-05-06 12:21 50.10985 22.02834 723 ft 26 kts 289°
2026-05-06 12:21 50.11078 22.02742 714 ft 22 kts
2026-05-06 12:21 50.11238 22.02751 731 ft 22 kts 34°
2026-05-06 12:21 50.11336 22.02848 706 ft 13 kts 88°
2026-05-06 12:22 50.11323 22.02903 681 ft 4 kts 263°
2026-05-06 12:22 50.11314 22.02873 683 ft 0 kts 276°